,,PA_Meas_PMT16A,,PR_Meas_QMR101_102,,RH_Meas_QMH101,,SR_Meas_QMS101,,TA_Meas_QMH101,,GenWind,,GenWind,
time,status,PA,status,PR,status,RH,status,SR,status,TA,status,DirAvg,status,SpdAvg,
2015-03-27, 00:00:04,VALID,920.32,VALID,0,VALID,81.5477,VALID,0,VALID,22.003,VALID,166,VALID,0.254687,
2015-03-27, 00:01:04,VALID,920.326,VALID,0,VALID,81.9136,VALID,0,VALID,21.964,VALID,169,VALID,0,
2015-03-27, 00:02:04,VALID,920.318,VALID,0,VALID,81.784,VALID,0,VALID,21.9444,VALID,170,VALID,0.0347656,
2015-03-27, 00:03:04,VALID,920.335,VALID,0,VALID,82.0356,VALID,0,VALID,21.9444,VALID,178,VALID,0,
2015-03-27, 00:04:04,VALID,920.321,VALID,0,VALID,81.5858,VALID,0,VALID,21.9835,VALID,139,VALID,0.923047,
2015-03-27, 00:05:04,VALID,920.344,VALID,0,VALID,81.7993,VALID,0,VALID,22.003,VALID,125,VALID,0.730078,
2015-03-27, 00:06:04,VALID,920.389,VALID,0,VALID,81.8526,VALID,0,VALID,22.003,VALID,125,VALID,0,
2015-03-27, 00:07:04,VALID,920.357,VALID,0,VALID,82.0889,VALID,0,VALID,21.9835,VALID,137,VALID,0,
2015-03-27, 00:08:04,VALID,920.328,VALID,0,VALID,82.2033,VALID,0,VALID,21.9038,VALID,143,VALID,0,
2015-03-27, 00:09:04,VALID,920.341,VALID,0,VALID,82.2567,VALID,0,VALID,21.9444,VALID,124,VALID,0.105078,
2015-03-27, 00:10:04,VALID,920.331,VALID,0,VALID,81.8221,VALID,0,VALID,22.0225,VALID,148,VALID,0.172656,
2015-03-27, 00:11:04,VALID,920.326,VALID,0,VALID,81.6468,VALID,0,VALID,22.081,VALID,118,VALID,0.221484,
2015-03-27, 00:12:04,VALID,920.31,VALID,0,VALID,81.319,VALID,0,VALID,22.1396,VALID,145,VALID,2.40195,
2015-03-27, 00:13:04,VALID,920.313,VALID,0,VALID,81.014,VALID,0,VALID,22.2176,VALID,112,VALID,0.699609,
2015-03-27, 00:14:04,VALID,920.315,VALID,0,VALID,80.8921,VALID,0,VALID,22.1981,VALID,140,VALID,2.16211,
2015-03-27, 00:15:04,VALID,920.329,VALID,0,VALID,80.3203,VALID,0,VALID,22.2762,VALID,140,VALID,1.50156,
2015-03-27, 00:16:04,VALID,920.353,VALID,0,VALID,80.5414,VALID,0,VALID,22.3152,VALID,136,VALID,0.0289063,
2015-03-27, 00:17:04,VALID,920.373,VALID,0,VALID,80.0001,VALID,0,VALID,22.3152,VALID,139,VALID,1.925,
2015-03-27, 00:18:04,VALID,920.379,VALID,0,VALID,80.1678,VALID,0,VALID,22.3933,VALID,137,VALID,1.19844,
2015-03-27, 00:19:04,VALID,920.333,VALID,0,VALID,79.9391,VALID,0,VALID,22.3737,VALID,140,VALID,1.36289,
2015-03-27, 00:20:04,VALID,920.342,VALID,0,VALID,80.1145,VALID,0,VALID,22.3737,VALID,132,VALID,2.0082,
2015-03-27, 00:21:04,VALID,920.333,VALID,0,VALID,79.8934,VALID,0,VALID,22.3737,VALID,139,VALID,1.32266,
2015-03-27, 00:22:04,VALID,920.301,VALID,0,VALID,80.1678,VALID,0,VALID,22.395,VALID,107,VALID,0.0195313,
2015-03-27, 00:23:04,VALID,920.293,VALID,0,VALID,80.2746,VALID,0,VALID,22.3542,VALID,127,VALID,0.421875,
2015-03-27, 00:24:04,VALID,920.289,VALID,0,VALID,80.2212,VALID,0,VALID,22.3152,VALID,109,VALID,0.43125,
2015-03-27, 00:25:04,VALID,920.279,VALID,0,VALID,80.1145,VALID,0,VALID,22.3542,VALID,102,VALID,1.64883,
2015-03-27, 00:26:04,VALID,920.261,VALID,0,VALID,79.1463,VALID,0,VALID,22.4128,VALID,166,VALID,0.985547,
2015-03-27, 00:27:04,VALID,920.25,VALID,0,VALID,79.6876,VALID,0,VALID,22.4925,VALID,72,VALID,0.0289063,
2015-03-27, 00:28:04,VALID,920.27,VALID,0,VALID,79.9239,VALID,0,VALID,22.4145,VALID,111,VALID,0,
2015-03-27, 00:29:04,VALID,920.24,VALID,0,VALID,80.4347,VALID,0,VALID,22.3347,VALID,96,VALID,0.003125,
2015-03-27, 07:41:04,INVALID - VALUE NOT AVAILABLE,0,INVALID - VALUE NOT AVAILABLE,0,INVALID - VALUE NOT AVAILABLE,0,INVALID - VALUE NOT AVAILABLE,0,INVALID - VALUE NOT AVAILABLE,0,INVALID,360,INVALID,0,
2015-03-27, 07:46:04,VALID,919.469,VALID,0,VALID,82.5006,VALID,71.0186,VALID,21.4177,VALID,108,VALID,1.89883,
2015-03-27, 07:47:04,VALID,919.467,VALID,0,VALID,82.1118,VALID,72.7377,VALID,21.4388,VALID,109,VALID,2.58047,
2015-03-27, 07:48:04,VALID,919.483,VALID,0,VALID,82.4167,VALID,80.6883,VALID,21.4567,VALID,161,VALID,2.48672,
2015-03-27, 07:49:04,VALID,919.475,VALID,0,VALID,82.7522,VALID,79.399,VALID,21.4567,VALID,133,VALID,1.6875,
2015-03-27, 07:50:04,VALID,919.456,VALID,0,VALID,82.4549,VALID,80.1511,VALID,21.4762,VALID,75,VALID,1.54844,
2015-03-27, 07:51:04,VALID,919.51,VALID,0,VALID,82.7293,VALID,84.5562,VALID,21.5152,VALID,111,VALID,1.56094,
2015-03-27, 07:52:04,VALID,919.528,VALID,0,VALID,81.9441,VALID,93.2589,VALID,21.5152,VALID,142,VALID,2.5543,
2015-03-27, 07:53:04,VALID,919.553,VALID,0,VALID,82.4396,VALID,122.805,VALID,21.5737,VALID,109,VALID,1.78477,
2015-03-27, 07:54:04,VALID,919.57,VALID,0,VALID,82.2262,VALID,140.64,VALID,21.5932,VALID,150,VALID,1.19883,
2015-03-27, 07:55:04,VALID,919.56,VALID,0,VALID,82.4015,VALID,131.723,VALID,21.6323,VALID,133,VALID,1.54961,
2015-03-27, 07:56:04,VALID,919.558,VALID,0,VALID,81.7078,VALID,132.905,VALID,21.6518,VALID,145,VALID,2.79219,
2015-03-27, 07:57:04,VALID,919.581,VALID,0,VALID,81.3571,VALID,114.747,VALID,21.6713,VALID,123,VALID,2.34102,
2015-03-27, 07:58:04,VALID,919.646,VALID,0,VALID,82.0356,VALID,103.573,VALID,21.6908,VALID,129,VALID,2.32969,
2015-03-27, 07:59:04,VALID,919.609,VALID,0,VALID,81.9975,VALID,104.863,VALID,21.7103,VALID,132,VALID,2.21172,
2015-03-27, 08:00:04,VALID,919.629,VALID,0,VALID,81.319,VALID,95.9449,VALID,21.7103,VALID,155,VALID,2.43945,
2015-03-27, 08:01:04,VALID,919.647,VALID,0,VALID,81.7688,VALID,86.1678,VALID,21.7315,VALID,118,VALID,2.35508,
2015-03-27, 08:02:04,VALID,919.681,VALID,0,VALID,82.3634,VALID,102.177,VALID,21.6908,VALID,140,VALID,2.50547,
2015-03-27, 08:03:04,VALID,919.699,VALID,0,VALID,82.1499,VALID,136.02,VALID,21.6908,VALID,143,VALID,2.19297,
2015-03-27, 08:04:04,VALID,919.668,VALID,0,VALID,82.2567,VALID,159.872,VALID,21.7103,VALID,151,VALID,1.4043,
2015-03-27, 08:05:04,VALID,919.681,VALID,0,VALID,82.2948,VALID,117.756,VALID,21.7688,VALID,162,VALID,1.67539,
2015-03-27, 08:06:04,VALID,919.671,VALID,0,VALID,82.0432,VALID,112.383,VALID,21.8274,VALID,136,VALID,2.59063,
2015-03-27, 08:07:04,VALID,919.686,VALID,0,VALID,81.7535,VALID,125.814,VALID,21.8079,VALID,132,VALID,2.71523,
2015-03-27, 08:08:04,VALID,919.707,VALID,0,VALID,81.441,VALID,142.252,VALID,21.8079,VALID,144,VALID,2.33633,
2015-03-27, 08:09:04,VALID,919.691,VALID,0,VALID,82.1957,VALID,149.558,VALID,21.8062,VALID,113,VALID,2.02422,
2015-03-27, 08:10:04,VALID,919.703,VALID,0,VALID,81.4486,VALID,332.423,VALID,21.8469,VALID,148,VALID,2.22227,
2015-03-27, 08:11:04,VALID,919.714,VALID,0,VALID,82.0737,VALID,170.617,VALID,21.9249,VALID,119,VALID,2.25234,
2015-03-27, 08:12:04,VALID,919.69,VALID,0,VALID,81.4028,VALID,361.217,VALID,22.042,VALID,136,VALID,2.06367,
2015-03-27, 08:13:04,VALID,919.68,VALID,0,VALID,81.0293,VALID,341.126,VALID,22.1201,VALID,115,VALID,1.72227,
2015-03-27, 08:14:04,VALID,919.708,VALID,0,VALID,81.7078,VALID,363.473,VALID,22.2762,VALID,112,VALID,1.24219,
2015-03-27, 08:15:04,VALID,919.717,VALID,0,VALID,80.1983,VALID,337.58,VALID,22.4128,VALID,140,VALID,2.33633,
2015-03-27, 08:16:04,VALID,919.714,VALID,0,VALID,78.9557,VALID,375.722,VALID,22.4518,VALID,129,VALID,2.64648,
2015-03-27, 08:17:04,VALID,919.681,VALID,0,VALID,79.2302,VALID,283.967,VALID,22.4713,VALID,115,VALID,2.03711,
2015-03-27, 08:18:04,VALID,919.724,VALID,0,VALID,78.7423,VALID,280.314,VALID,22.4891,VALID,156,VALID,3.05742,
2015-03-27, 08:19:04,VALID,919.74,VALID,0,VALID,79.0548,VALID,229.709,VALID,22.4696,VALID,106,VALID,1.55078,
2015-03-27, 08:20:04,VALID,919.751,VALID,0,VALID,80.1526,VALID,190.493,VALID,22.4111,VALID,89,VALID,1.77891,
2015-03-27, 08:21:04,VALID,919.767,VALID,0,VALID,79.436,VALID,139.888,VALID,22.372,VALID,104,VALID,2.01367,
2015-03-27, 08:22:04,VALID,919.797,VALID,0,VALID,79.8477,VALID,161.269,VALID,22.333,VALID,120,VALID,1.82227,
2015-03-27, 08:23:04,VALID,919.797,VALID,0,VALID,79.3979,VALID,237.552,VALID,22.3152,VALID,128,VALID,2.46328,
2015-03-27, 08:24:04,VALID,919.749,VALID,0,VALID,79.6037,VALID,446.096,VALID,22.3347,VALID,129,VALID,1.76094,
2015-03-27, 08:25:04,VALID,919.769,VALID,0,VALID,79.6418,VALID,393.772,VALID,22.4696,VALID,187,VALID,2.00977,
2015-03-27, 08:26:04,VALID,919.772,VALID,0,VALID,79.1463,VALID,188.452,VALID,22.6257,VALID,78,VALID,2.29766,
2015-03-27, 08:27:04,VALID,919.801,VALID,0,VALID,78.6889,VALID,267.099,VALID,22.647,VALID,72,VALID,2.73164,
2015-03-27, 08:28:04,VALID,919.817,VALID,0,VALID,78.7575,VALID,165.03,VALID,22.6096,VALID,54,VALID,2.30352,
2015-03-27, 08:29:04,VALID,919.845,VALID,0,VALID,79.6495,VALID,173.84,VALID,22.5884,VALID,159,VALID,1.43594,
2015-03-27, 08:30:04,VALID,919.849,VALID,0,VALID,78.4373,VALID,198.336,VALID,22.5494,VALID,158,VALID,1.37031,
2015-03-27, 08:31:04,VALID,919.854,VALID,0,VALID,78.6432,VALID,193.824,VALID,22.5494,VALID,92,VALID,1.79648,
2015-03-27, 08:32:04,VALID,919.917,VALID,0,VALID,78.727,VALID,302.769,VALID,22.5103,VALID,152,VALID,1.90039,
2015-03-27, 08:33:04,VALID,919.942,VALID,0,VALID,79.84,VALID,286.546,VALID,22.6079,VALID,160,VALID,1.07656,
2015-03-27, 08:34:04,VALID,919.97,VALID,0,VALID,78.6889,VALID,258.933,VALID,22.7445,VALID,156,VALID,1.28437,
2015-03-27, 08:35:04,VALID,919.989,VALID,0,VALID,78.1629,VALID,203.923,VALID,22.8421,VALID,149,VALID,1.28398,
2015-03-27, 08:36:04,VALID,919.988,VALID,0,VALID,78.2849,VALID,529.685,VALID,22.8226,VALID,119,VALID,2.71094,
2015-03-27, 08:37:04,VALID,919.982,VALID,0,VALID,78.5288,VALID,232.503,VALID,22.8989,VALID,145,VALID,1.53906,
2015-03-27, 08:38:04,VALID,919.981,VALID,0,VALID,78.8185,VALID,247.222,VALID,23.0178,VALID,107,VALID,1.30117,
2015-03-27, 08:39:04,VALID,919.964,VALID,0,VALID,77.1795,VALID,317.918,VALID,23.0178,VALID,161,VALID,2.11172,
2015-03-27, 08:40:04,VALID,919.937,VALID,0,VALID,77.1718,VALID,187.377,VALID,22.9592,VALID,137,VALID,2.12656,
2015-03-27, 08:41:04,VALID,919.981,VALID,0,VALID,78.4221,VALID,168.575,VALID,22.8209,VALID,138,VALID,1.94219,
2015-03-27, 08:42:04,VALID,919.974,VALID,0,VALID,77.614,VALID,152.674,VALID,22.7233,VALID,123,VALID,3.05703,
2015-03-27, 08:43:04,VALID,920.011,VALID,0,VALID,78.0257,VALID,148.376,VALID,22.5867,VALID,146,VALID,2.36602,
2015-03-27, 08:44:04,VALID,920.023,VALID,0,VALID,79.558,VALID,147.946,VALID,22.5281,VALID,114,VALID,1.26602,
2015-03-27, 08:45:04,VALID,920.039,VALID,0,VALID,79.3674,VALID,187.7,VALID,22.5494,VALID,107,VALID,1.23125,
2015-03-27, 08:46:04,VALID,920.002,VALID,0,VALID,79.2073,VALID,204.89,VALID,22.5689,VALID,88,VALID,0.654297,
2015-03-27, 08:47:04,VALID,920.013,VALID,0,VALID,79.4207,VALID,205.32,VALID,22.5867,VALID,116,VALID,0.0320312,
2015-03-27, 08:48:04,VALID,920.003,VALID,0,VALID,80.6862,VALID,188.022,VALID,22.6257,VALID,122,VALID,0,
2015-03-27, 08:49:04,VALID,920.017,VALID,0,VALID,80.5033,VALID,173.625,VALID,22.6843,VALID,120,VALID,0.00429688,
2015-03-27, 08:50:04,VALID,920.039,VALID,0,VALID,80.0687,VALID,160.625,VALID,22.725,VALID,139,VALID,1.42578,
2015-03-27, 08:51:04,VALID,919.997,VALID,0,VALID,78.8795,VALID,197.799,VALID,22.7055,VALID,134,VALID,2.68516,
2015-03-27, 08:52:04,VALID,919.984,VALID,0,VALID,78.0562,VALID,486.816,VALID,22.6062,VALID,120,VALID,2.5707,
2015-03-27, 08:53:04,VALID,919.964,VALID,0,VALID,79.4284,VALID,242.602,VALID,22.6647,VALID,88,VALID,1.27266,
2015-03-27, 08:54:04,VALID,919.936,VALID,0,VALID,79.4741,VALID,207.039,VALID,22.8599,VALID,134,VALID,0.261328,
2015-03-27, 08:55:04,VALID,920.01,VALID,0,VALID,78.3382,VALID,174.055,VALID,22.9592,VALID,122,VALID,2.33516,
2015-03-27, 08:56:04,VALID,920.004,VALID,0,VALID,77.0804,VALID,146.979,VALID,22.9185,VALID,85,VALID,1.86875,
2015-03-27, 08:57:04,VALID,919.994,VALID,0,VALID,76.8745,VALID,157.831,VALID,22.8794,VALID,88,VALID,1.83438,
2015-03-27, 08:58:04,VALID,920.032,VALID,0,VALID,77.5301,VALID,218.32,VALID,22.8226,VALID,107,VALID,1.53008,
2015-03-27, 08:59:04,VALID,920.074,VALID,0,VALID,78.9481,VALID,335.646,VALID,22.7818,VALID,117,VALID,0.151172,
2015-03-27, 09:00:04,VALID,920.057,VALID,0,VALID,76.8288,VALID,608.009,VALID,22.8226,VALID,108,VALID,1.81094,
2015-03-27, 09:01:04,VALID,920.04,VALID,0,VALID,77.2023,VALID,542.793,VALID,22.9592,VALID,104,VALID,2.83125,
2015-03-27, 09:02:04,VALID,920.065,VALID,0,VALID,78.2467,VALID,276.339,VALID,23.0941,VALID,88,VALID,1.22344,
2015-03-27, 09:03:04,VALID,920.079,VALID,0,VALID,77.6292,VALID,162.881,VALID,23.2502,VALID,120,VALID,0.937891,
2015-03-27, 09:04:04,VALID,920.072,VALID,0,VALID,75.8073,VALID,143.971,VALID,23.3674,VALID,67,VALID,1.85898,
2015-03-27, 09:05:04,VALID,920.1,VALID,0,VALID,76.44,VALID,178.03,VALID,23.2502,VALID,121,VALID,1.56055,
2015-03-27, 09:06:04,VALID,920.116,VALID,0,VALID,75.8987,VALID,257.322,VALID,23.1136,VALID,97,VALID,2.31641,
2015-03-27, 09:07:04,VALID,920.109,VALID,0,VALID,76.7221,VALID,337.258,VALID,23.0551,VALID,97,VALID,2.36953,
2015-03-27, 09:08:04,VALID,920.119,VALID,0,VALID,76.8135,VALID,627.134,VALID,23.1136,VALID,107,VALID,1.32266,
2015-03-27, 09:09:04,VALID,920.131,VALID,0,VALID,76.7221,VALID,219.717,VALID,23.1917,VALID,132,VALID,1.83125,
2015-03-27, 09:10:04,VALID,920.105,VALID,0,VALID,75.6624,VALID,579.43,VALID,23.2502,VALID,116,VALID,1.98125,
2015-03-27, 09:11:04,VALID,920.115,VALID,0,VALID,76.4247,VALID,606.72,VALID,23.3869,VALID,121,VALID,2.65977,
2015-03-27, 09:12:04,VALID,920.06,VALID,0,VALID,76.966,VALID,191.46,VALID,23.465,VALID,130,VALID,1.54883,
2015-03-27, 09:13:04,VALID,920.032,VALID,0,VALID,75.8301,VALID,612.629,VALID,23.6016,VALID,53,VALID,2.06445,
2015-03-27, 09:14:04,VALID,920.048,VALID,0,VALID,76.8898,VALID,592.86,VALID,23.795,VALID,69,VALID,0.780859,
2015-03-27, 09:15:04,VALID,920.038,VALID,0,VALID,74.1377,VALID,188.559,VALID,23.8145,VALID,115,VALID,2.51836,
2015-03-27, 09:16:04,VALID,920.031,VALID,0,VALID,75.2812,VALID,245.181,VALID,23.74,VALID,100,VALID,1.77969,
2015-03-27, 09:17:04,VALID,920.027,VALID,0,VALID,75.1974,VALID,657.54,VALID,23.7986,VALID,70,VALID,0.765234,
2015-03-27, 09:18:04,VALID,919.995,VALID,0,VALID,75.609,VALID,589.852,VALID,23.7187,VALID,103,VALID,1.27891,
2015-03-27, 09:19:04,VALID,919.975,VALID,0,VALID,71.5,VALID,603.282,VALID,23.7773,VALID,22,VALID,1.63203,
2015-03-27, 09:20:04,VALID,920.014,VALID,0,VALID,74.496,VALID,240.561,VALID,23.8944,VALID,124,VALID,1.89219,
2015-03-27, 09:21:04,VALID,919.993,VALID,0,VALID,73.4135,VALID,466.832,VALID,23.7791,VALID,139,VALID,2.70313,
2015-03-27, 09:22:04,VALID,919.944,VALID,0,VALID,75.8759,VALID,686.549,VALID,23.6602,VALID,88,VALID,1.64258,
2015-03-27, 09:23:04,VALID,920,VALID,0,VALID,77.0727,VALID,617.679,VALID,23.7968,VALID,90,VALID,1.27305,
2015-03-27, 09:24:04,VALID,920.006,VALID,0,VALID,72.6512,VALID,701.483,VALID,23.9139,VALID,180,VALID,1.62578,
2015-03-27, 09:25:04,VALID,920.001,VALID,0,VALID,74.8086,VALID,329.415,VALID,24.0311,VALID,138,VALID,0.796484,
2015-03-27, 09:26:04,VALID,920.028,VALID,0,VALID,73.5736,VALID,608.332,VALID,24.1092,VALID,127,VALID,1.52773,
2015-03-27, 09:27:04,VALID,919.998,VALID,0,VALID,70.7987,VALID,691.384,VALID,23.9725,VALID,127,VALID,1.90156,
2015-03-27, 09:28:04,VALID,919.96,VALID,0,VALID,73.8709,VALID,581.042,VALID,23.9335,VALID,103,VALID,1.07344,
2015-03-27, 09:29:04,VALID,920.035,VALID,0,VALID,73.5431,VALID,723.616,VALID,24.1092,VALID,139,VALID,0.853125,
2015-03-27, 09:30:04,VALID,920.015,VALID,0,VALID,73.9014,VALID,715.558,VALID,24.2635,VALID,119,VALID,0,
2015-03-27, 09:31:04,VALID,920.019,VALID,0,VALID,71.1112,VALID,691.921,VALID,24.4978,VALID,178,VALID,1.79102,
2015-03-27, 09:32:04,VALID,920.027,VALID,0,VALID,72.2929,VALID,682.251,VALID,24.6149,VALID,160,VALID,1.27461,
2015-03-27, 09:33:04,VALID,920.043,VALID,0,VALID,72.6054,VALID,665.705,VALID,24.5192,VALID,144,VALID,2.2207,
2015-03-27, 09:34:04,VALID,920.083,VALID,0,VALID,72.8494,VALID,233.147,VALID,24.3221,VALID,127,VALID,2.62383,
2015-03-27, 09:35:04,VALID,920.073,VALID,0,VALID,72.7121,VALID,509.379,VALID,24.0878,VALID,94,VALID,3.10938,
2015-03-27, 09:36:04,VALID,920.027,VALID,0,VALID,73.7184,VALID,331.778,VALID,23.9512,VALID,81,VALID,2.22227,
2015-03-27, 09:37:04,VALID,920.088,VALID,0,VALID,75.6243,VALID,363.151,VALID,23.795,VALID,88,VALID,2.37422,
2015-03-27, 09:38:04,VALID,920.092,VALID,0,VALID,73.7947,VALID,303.951,VALID,23.6584,VALID,101,VALID,1.0668,
2015-03-27, 09:39:04,VALID,920.068,VALID,0,VALID,76.1503,VALID,262.909,VALID,23.5803,VALID,70,VALID,1.89102,
2015-03-27, 09:40:04,VALID,920.098,VALID,0,VALID,76.1274,VALID,236.371,VALID,23.5998,VALID,77,VALID,1,
2015-03-27, 09:41:04,VALID,920.095,VALID,0,VALID,76.2723,VALID,237.66,VALID,23.6388,VALID,117,VALID,1.37852,
2015-03-27, 09:42:04,VALID,920.121,VALID,0,VALID,76.3942,VALID,234.437,VALID,23.5998,VALID,114,VALID,2.27617,
2015-03-27, 09:43:04,VALID,920.068,VALID,0,VALID,75.1211,VALID,245.718,VALID,23.4845,VALID,119,VALID,3.11289,
2015-03-27, 09:44:04,VALID,920.058,VALID,0,VALID,76.3409,VALID,245.825,VALID,23.3461,VALID,102,VALID,1.26094,
2015-03-27, 09:45:04,VALID,920.048,VALID,0,VALID,75.1059,VALID,271.181,VALID,23.307,VALID,96,VALID,2.59141,
2015-03-27, 09:46:04,VALID,920.038,VALID,0,VALID,77.5378,VALID,323.505,VALID,23.307,VALID,95,VALID,2.56836,
2015-03-27, 09:47:04,VALID,920.053,VALID,0,VALID,75.9902,VALID,322.431,VALID,23.3265,VALID,100,VALID,2.61719,
2015-03-27, 09:48:04,VALID,919.987,VALID,0,VALID,76.6916,VALID,315.662,VALID,23.3656,VALID,107,VALID,1.29766,
2015-03-27, 09:49:04,VALID,920.034,VALID,0,VALID,76.0741,VALID,289.769,VALID,23.4437,VALID,128,VALID,1.75312,
2015-03-27, 09:50:04,VALID,920.061,VALID,0,VALID,75.9292,VALID,382.598,VALID,23.4632,VALID,104,VALID,2.05742,
2015-03-27, 09:51:04,VALID,920.028,VALID,0,VALID,75.4185,VALID,276.231,VALID,23.4046,VALID,125,VALID,2.22148,
2015-03-27, 09:52:04,VALID,920.02,VALID,0,VALID,75.327,VALID,307.497,VALID,23.3461,VALID,104,VALID,3.60469,
2015-03-27, 09:53:04,VALID,919.976,VALID,0,VALID,75.914,VALID,871.563,VALID,23.307,VALID,77,VALID,3.12109,
2015-03-27, 09:54:04,VALID,920.004,VALID,0,VALID,76.6153,VALID,324.687,VALID,23.307,VALID,130,VALID,3.91289,
2015-03-27, 09:55:04,VALID,919.99,VALID,0,VALID,77.1642,VALID,305.24,VALID,23.307,VALID,77,VALID,1.78594,
2015-03-27, 09:56:04,VALID,919.949,VALID,0,VALID,76.501,VALID,468.658,VALID,23.3851,VALID,55,VALID,3.5,
2015-03-27, 09:57:04,VALID,919.966,VALID,0,VALID,74.3817,VALID,437.823,VALID,23.3851,VALID,105,VALID,3.53633,
2015-03-27, 09:58:04,VALID,919.997,VALID,0,VALID,75.8759,VALID,468.551,VALID,23.4046,VALID,104,VALID,3.28594,
2015-03-27, 09:59:04,VALID,919.994,VALID,0,VALID,74.9229,VALID,608.224,VALID,23.3656,VALID,95,VALID,3.38516,
2015-03-27, 10:00:04,VALID,920,VALID,0,VALID,76.4095,VALID,336.291,VALID,23.4632,VALID,61,VALID,2.46328,
2015-03-27, 10:01:04,VALID,920.017,VALID,0,VALID,75.853,VALID,455.765,VALID,23.5199,VALID,100,VALID,2.43555,
2015-03-27, 10:02:04,VALID,919.958,VALID,0,VALID,76.2037,VALID,341.77,VALID,23.5412,VALID,86,VALID,2.9582,
2015-03-27, 10:03:04,VALID,919.999,VALID,0,VALID,76.4247,VALID,333.39,VALID,23.6193,VALID,54,VALID,2.9832,
2015-03-27, 10:04:04,VALID,920.01,VALID,0,VALID,75.7463,VALID,347.035,VALID,23.5803,VALID,75,VALID,1.81172,
2015-03-27, 10:05:04,VALID,919.981,VALID,0,VALID,75.9597,VALID,305.025,VALID,23.6388,VALID,31,VALID,3.54531,
2015-03-27, 10:06:04,VALID,919.996,VALID,0,VALID,75.3117,VALID,290.628,VALID,23.6584,VALID,118,VALID,1.68867,
2015-03-27, 10:07:04,VALID,920.053,VALID,0,VALID,76.6153,VALID,319.315,VALID,23.7364,VALID,67,VALID,1.47383,
2015-03-27, 10:08:04,VALID,920.034,VALID,0,VALID,75.0068,VALID,312.009,VALID,23.6779,VALID,86,VALID,2.64102,
2015-03-27, 10:09:04,VALID,920.064,VALID,0,VALID,74.8391,VALID,793.99,VALID,23.5998,VALID,86,VALID,1.85195,
2015-03-27, 10:10:04,VALID,920.081,VALID,0,VALID,76.1198,VALID,330.274,VALID,23.6779,VALID,88,VALID,1.48438,
2015-03-27, 10:11:04,VALID,920.098,VALID,0,VALID,76.1427,VALID,303.414,VALID,23.756,VALID,72,VALID,2.52539,
2015-03-27, 10:12:04,VALID,920.069,VALID,0,VALID,75.2431,VALID,322.968,VALID,23.7169,VALID,58,VALID,2.94531,
2015-03-27, 10:13:04,VALID,920.067,VALID,0,VALID,75.0906,VALID,283.967,VALID,23.7364,VALID,56,VALID,1.54492,
2015-03-27, 10:14:04,VALID,920.048,VALID,0,VALID,75.0068,VALID,254.098,VALID,23.7932,VALID,92,VALID,2.32852,
2015-03-27, 10:15:04,VALID,919.998,VALID,0,VALID,75.4871,VALID,253.239,VALID,23.834,VALID,124,VALID,1.43867,
2015-03-27, 10:16:04,VALID,920.04,VALID,0,VALID,76.4247,VALID,315.017,VALID,23.7382,VALID,124,VALID,2.91836,
2015-03-27, 10:17:04,VALID,920.014,VALID,0,VALID,74.3131,VALID,562.777,VALID,23.7773,VALID,126,VALID,1.13906,
2015-03-27, 10:18:04,VALID,919.986,VALID,0,VALID,74.9077,VALID,243.139,VALID,23.8749,VALID,58,VALID,2.97031,
2015-03-27, 10:19:04,VALID,919.998,VALID,0,VALID,74.6637,VALID,226.593,VALID,23.8163,VALID,89,VALID,3.24023,
2015-03-27, 10:20:04,VALID,920.052,VALID,0,VALID,76.0131,VALID,224.552,VALID,23.6992,VALID,123,VALID,2.98594,
2015-03-27, 10:21:04,VALID,919.995,VALID,0,VALID,75.609,VALID,218.213,VALID,23.6602,VALID,121,VALID,1.45117,
2015-03-27, 10:22:04,VALID,920.012,VALID,0,VALID,76.1427,VALID,230.891,VALID,23.543,VALID,122,VALID,3.48086,
2015-03-27, 10:23:04,VALID,919.975,VALID,0,VALID,75.8073,VALID,192.964,VALID,23.4454,VALID,91,VALID,1.85039,
2015-03-27, 10:24:04,VALID,920.022,VALID,0,VALID,76.501,VALID,171.906,VALID,23.3461,VALID,99,VALID,2.62188,
2015-03-27, 10:25:04,VALID,919.963,VALID,0,VALID,75.7081,VALID,153.426,VALID,23.2893,VALID,181,VALID,2.54102,
2015-03-27, 10:26:04,VALID,919.943,VALID,0,VALID,76.3409,VALID,159.658,VALID,23.3088,VALID,138,VALID,1.6668,
2015-03-27, 10:27:04,VALID,919.971,VALID,0,VALID,76.4705,VALID,175.989,VALID,23.268,VALID,128,VALID,1.44258,
2015-03-27, 10:28:04,VALID,919.974,VALID,0,VALID,77.5759,VALID,179.212,VALID,23.2307,VALID,96,VALID,2.08828,
2015-03-27, 10:29:04,VALID,919.992,VALID,0,VALID,77.5835,VALID,169.005,VALID,23.1509,VALID,116,VALID,1.42109,
2015-03-27, 10:30:04,VALID,919.988,VALID,0,VALID,76.8212,VALID,178.352,VALID,23.1331,VALID,103,VALID,2.24453,
2015-03-27, 10:31:04,VALID,919.988,VALID,0,VALID,77.5225,VALID,195.543,VALID,23.0746,VALID,95,VALID,2.2082,
2015-03-27, 10:32:04,VALID,919.946,VALID,0,VALID,78.384,VALID,201.452,VALID,23.0551,VALID,119,VALID,3.19805,
2015-03-27, 10:33:04,VALID,919.947,VALID,0,VALID,78.0257,VALID,205.535,VALID,23.016,VALID,104,VALID,2.93047,
2015-03-27, 10:34:04,VALID,919.9,VALID,0,VALID,77.9494,VALID,183.617,VALID,23.016,VALID,145,VALID,1.43477,
2015-03-27, 10:35:04,VALID,919.9,VALID,0,VALID,77.8656,VALID,152.352,VALID,23.0356,VALID,142,VALID,3.02227,
2015-03-27, 10:36:04,VALID,919.913,VALID,0,VALID,78.018,VALID,129.037,VALID,23.0551,VALID,88,VALID,1.61563,
2015-03-27, 10:37:04,VALID,919.867,VALID,0,VALID,78.6889,VALID,115.714,VALID,23.0728,VALID,64,VALID,2.66758,
2015-03-27, 10:38:04,VALID,919.917,VALID,0,VALID,77.8732,VALID,117.326,VALID,23.0959,VALID,70,VALID,2.26641,
2015-03-27, 10:39:04,VALID,919.876,VALID,0,VALID,78.0943,VALID,163.633,VALID,23.0551,VALID,55,VALID,3.61055,
2015-03-27, 10:40:04,VALID,919.852,VALID,0,VALID,78.1781,VALID,224.015,VALID,22.977,VALID,90,VALID,2.31484,
2015-03-27, 10:41:04,VALID,919.803,VALID,0,VALID,77.9266,VALID,201.774,VALID,22.977,VALID,124,VALID,1.97305,
2015-03-27, 10:42:04,VALID,919.795,VALID,0,VALID,78.91,VALID,189.849,VALID,23.0356,VALID,48,VALID,2.51016,
2015-03-27, 10:43:04,VALID,919.796,VALID,0,VALID,78.8795,VALID,174.377,VALID,23.0373,VALID,62,VALID,2.69492,
2015-03-27, 10:44:04,VALID,919.724,VALID,0,VALID,78.5898,VALID,160.625,VALID,23.0373,VALID,80,VALID,1.88633,
2015-03-27, 10:45:04,VALID,919.743,VALID,0,VALID,77.4996,VALID,163.525,VALID,23.0356,VALID,90,VALID,1.94062,
2015-03-27, 10:46:04,VALID,919.755,VALID,0,VALID,78.1781,VALID,173.41,VALID,23.0143,VALID,86,VALID,2.21836,
2015-03-27, 10:47:04,VALID,919.744,VALID,0,VALID,78.5364,VALID,178.997,VALID,23.016,VALID,45,VALID,2.32773,
2015-03-27, 10:48:04,VALID,919.743,VALID,0,VALID,78.5364,VALID,178.352,VALID,23.0143,VALID,73,VALID,2.08867,
2015-03-27, 10:49:04,VALID,919.752,VALID,0,VALID,79.6266,VALID,170.187,VALID,22.9948,VALID,120,VALID,1.88047,
2015-03-27, 10:50:04,VALID,919.743,VALID,0,VALID,77.5149,VALID,162.881,VALID,22.9753,VALID,123,VALID,2.73008,
2015-03-27, 10:51:04,VALID,919.654,VALID,0,VALID,78.1476,VALID,158.798,VALID,23.0143,VALID,157,VALID,1.0707,